THORAD DELTA 1 DEB, 18693

Orbit data source: Space-Track

THORAD DELTA 1 DEB, 18693 is space debris in SSO originally from a launch on Fri, 15 Nov 1974 UTC launched from the Air Force Western Test Range (AFWTR). Debris objects in space refer to the collection of defunct objects orbiting the Earth. Examples of debris include non-operational satellites, rocket bodies, and fragments generated from explosions, collisions, or faulty payload assembly.

Loading next visibility...
Identifier
18693, 1974-089FA
Orbit
SSO
Country
Flag of USUS
Related business
Manufacturer
Unknown
Mission
Spacecraft
Bus & Motor
Unknown
Mass
Unknown
Launch date (UTC)
1974-11-15 (51 years ago)
Launch vehicle
Unknown
Launch site
Air Force Western Test Range (AFWTR)
Object type
Payload
Rocket body
Debris
Shape & HBR
Unknown shape, 0.1 m
Radar Cross Section
Small (<0.1 m²)

Expand to show TLE details & history
Last TLE update: 18 hours ago

TLE from 18 hours ago
0 THORAD DELTA 1 DEB
1 18693U 74089FA  26103.77060997 -.00001303  00000-0 -39513-2 0  9994
2 18693 101.7019  51.4288 0186009 245.2050 142.2202 12.97959577772873
Epoch: 2026-04-13T18:29Z
TLE epoch observation values (Epoch: 2026-04-13T18:29:40.701Z)
Latitude
28.09877°
Longitude
-74.265°
Altitude
1,386.743 km
Speed
7.115 km/s
True Right ascension
03h 00m 26s
True Declination
27° 58' 04"
Sunlit
Object was in daylight at epoch
Visualization orbit readout
Latitude
Unknown
Longitude
Unknown
Altitude
Unknown
Speed
Unknown
Apparent Right ascension
Unknown
Apparent Declination
Unknown
Sunlit
N/A
Visualization observer readout
Local Sidereal Time
18:53:50
Azimuth
Unknown
Elevation
Unknown
Doppler factor
Unknown
Orbital elements
Apogee altitude
1,409.792 km
Perigee altitude
1,125.358 km
Semi-major axis
7,645.712 km
Eccentricity
0.0186
Inclination
101.7019°
RAAN
51.4288°
Arg. of periapsis
245.205°
True anomaly
143.50233°
Mean anomaly
142.2202°
Eccentric anomaly
142.86361°
Mean motion
3.24651 °/min
Orbital period
110.89 mins
BSTAR
-0.0039513
Loading maneuver chart data...
Computing Atmospheric mass density...

Documentation

Showing up to 5 results
|